Location: Ku?niki
(51.4449°N, 17.8974°E)
Time: 15:46:07
(UTC+00:00)

Cosmos 2298 Rocket - Pass Details

Date: 18 September 2020
Orbit: 776 x 783 km, 74.0° (Epoch: 21 October)

Event Time Altitude Azimuth Distance (km) Brightness Sun altitude
Rises 18:17:13 0° 181° (S) 3,259 7.1 -13.3°
Reaches altitude 10° 18:19:41 10° 174° (S) 2,335 6.3 -13.7°
Maximum altitude 18:24:40 42° 105° (ESE) 1,102 4.3 -14.4°
Drops below altitude 10° 18:29:40 10° 36° (NE) 2,350 6.4 -15.1°
Sets 18:32:10 0° 29° (NNE) 3,282 7.2 -15.5°
